Ogden Hill AFB, UT

4:22 PM MST on February 21, 2018 (GMT -0700)
Hill Air Force Base

Weather History for KHIF - October, 2013

Change the Weather History Date:

Friday, October 25, 2013

  Actual Average Record
Temperature  
Mean Temperature 53 °F -  
Max Temperature 64 °F 52 °F 76 °F (2014)
Min Temperature 42 °F 36 °F 26 °F (1996)
Degree Days  
Heating Degree Days 12    
Growing Degree Days 3 (Base 50)    
Moisture  
Dew Point 27 °F    
Average Humidity 39    
Maximum Humidity 54    
Minimum Humidity 27    
Precipitation  
Precipitation 0.00 in - - ()
Sea Level Pressure  
Sea Level Pressure 30.16 in    
Wind  
Wind Speed 11 mph (ESE)    
Max Wind Speed 17 mph    
Max Gust Speed -    
Visibility 10 miles    
Events Rain    
Averages and records for this station are not official NWS values.
T = Trace of Precipitation, MM = Missing Value Source: NWS Daily Summary

Daily Weather History Graph

Daily Weather History Graph

Search for Another Location

Airport or City:

Trip Planner

Search our weather history database for the weather conditions in past years. The results will help you decide how hot, cold, wet, or windy it might be!

Date:

Astronomy

Oct. 25, 2013 Rise Set
Actual Time 7:51 AM MDT 6:32 PM MDT
Civil Twilight 7:22 AM MDT 7:00 PM MDT
Nautical Twilight 6:50 AM MDT 7:32 PM MDT
Astronomical Twilight 6:18 AM MDT 8:04 PM MDT
Moon 11:54 PM MDT (10/25) 1:34 PM MDT (10/25)
Length of Visible Light 11h 37m
Length of Day
10h 41m
Waning Gibbous, 62% of the Moon is Illuminated
Oct 25
Waning Gibbous
Oct 26
Last Quarter
Nov 3
New
Nov 9
First Quarter
Nov 17
Full

Hourly Weather History & Observations

Time (MDT) Temp. Windchill Dew Point Humidity Pressure Visibility Wind Dir Wind Speed Gust Speed Precip Events Conditions
12:39 AM 48.2 °F - 26.6 °F 43% 30.18 in 10.0 mi ESE 10.4 mph - N/A Rain Light Rain
12:58 AM 48.7 °F - 25.5 °F 40% 30.09 in 10.0 mi ESE 11.5 mph - 0.00 in Rain Light Rain
1:43 AM 48.2 °F - 23.0 °F 37% 30.19 in 10.0 mi ESE 15.0 mph - N/A   Clear
1:58 AM 47.8 °F - 24.1 °F 39% 30.10 in 10.0 mi ESE 13.8 mph - 0.00 in   Clear
2:24 AM 48.2 °F - 24.8 °F 40% 30.19 in 10.0 mi ESE 12.7 mph - N/A Rain Light Rain
2:58 AM 46.9 °F - 23.4 °F 40% 30.11 in 10.0 mi ESE 15.0 mph - N/A Rain Light Rain
3:12 AM 46.4 °F 40.1 °F 23.0 °F 40% 30.20 in 10.0 mi ESE 15.0 mph - N/A   Partly Cloudy
3:58 AM 46.0 °F 39.3 °F 22.6 °F 40% 30.09 in 10.0 mi ESE 16.1 mph - 0.00 in   Clear
4:58 AM 45.5 °F 38.9 °F 22.6 °F 41% 30.11 in 10.0 mi ESE 15.0 mph - N/A   Clear
5:58 AM 44.2 °F 37.3 °F 22.6 °F 42% 30.11 in 10.0 mi ESE 15.0 mph - N/A   Clear
6:58 AM 43.5 °F 36.1 °F 23.0 °F 44% 30.15 in 10.0 mi ESE 16.1 mph - N/A   Clear
7:58 AM 42.3 °F 34.1 °F 22.6 °F 46% 30.16 in 10.0 mi ESE 17.3 mph - N/A   Clear
8:58 AM 43.9 °F 36.2 °F 22.8 °F 43% 30.20 in 10.0 mi ESE 17.3 mph - N/A   Clear
9:58 AM 47.3 °F - 23.7 °F 40% 30.19 in 10.0 mi ESE 15.0 mph - N/A   Clear
10:58 AM 53.1 °F - 25.3 °F 34% 30.19 in 10.0 mi ESE 10.4 mph - N/A   Clear
11:58 AM 59.4 °F - 29.1 °F 32% 30.18 in 10.0 mi SE 2.3 mph - N/A   Clear
12:58 PM 61.3 °F - 31.8 °F 33% 30.17 in 10.0 mi Variable 4.6 mph - N/A   Clear
1:58 PM 62.6 °F - 32.2 °F 32% 30.15 in 10.0 mi North 4.6 mph - N/A   Clear
2:58 PM 63.7 °F - 31.6 °F 30% 30.14 in 10.0 mi NW 3.5 mph - N/A   Clear
3:58 PM 64.6 °F - 29.5 °F 27% 30.14 in 10.0 mi NNW 5.8 mph - N/A   Clear
4:58 PM 64.8 °F - 32.0 °F 29% 30.13 in 10.0 mi West 5.8 mph - 0.00 in   Clear
5:58 PM 60.8 °F - 37.0 °F 41% 30.15 in 10.0 mi West 5.8 mph - N/A   Clear
6:58 PM 54.0 °F - 34.5 °F 48% 30.19 in 10.0 mi West 4.6 mph - N/A   Clear
7:58 PM 56.3 °F - 28.0 °F 34% 30.19 in 10.0 mi Calm Calm - 0.00 in   Clear
8:58 PM 50.0 °F - 33.3 °F 53% 30.21 in 10.0 mi South 2.3 mph - N/A   Clear
9:58 PM 51.3 °F - 35.1 °F 54% 30.21 in 10.0 mi East 4.6 mph - N/A   Clear
10:58 PM 49.5 °F - 27.5 °F 43% 30.21 in 10.0 mi ESE 10.4 mph - N/A   Clear
11:58 PM 48.7 °F - 25.9 °F 41% 30.19 in 10.0 mi ESE 15.0 mph - N/A   Clear